Date String (YYYY-MM-DD hh:mm:ss) UTC,Instrument flags,Ambient pressure (hPa),Sample flow (lpm),Bypass flow (lpm),Sample temperature (°C),Ambient temperature (°C),ASC tube jacket temperature (°C),LED temperature (°C),Box temperature (°C),Sample RH (%),Span deviation,Mass concentration (μg/m³),Mass concentration (μg/m³),Mass concentration (μg/m³)
DateTimeUTC,F1_M11,P_M11,Q1_M11,Q2_M11,T1_M11,T2_M11,T3_M11,T4_M11,T5_M11,U1_M11,ZSPAN_M11,X0_M11,X2_M11,X1_M11
2023-05-12 05:00:00,,0826.2,4.99,0.00,27.4,25.5,00.0,35.9,29.1,28.0,0000.0,0001.90,0000.73,0000.45
2023-05-12 05:01:00,,0826.2,4.99,0.00,27.4,25.4,00.0,35.9,29.0,28.1,0000.0,0001.94,0000.73,0000.43
2023-05-12 05:02:00,,0826.2,4.99,0.00,27.3,25.4,00.0,35.9,29.0,28.2,0000.0,0002.21,0000.76,0000.43
2023-05-12 05:03:00,,0826.2,5.00,0.00,27.3,25.3,00.0,35.8,28.9,28.2,0000.0,0002.21,0000.76,0000.43
2023-05-12 05:04:00,,0826.2,4.99,0.00,27.3,25.3,00.0,35.8,28.9,28.3,0000.0,0002.25,0000.77,0000.43
2023-05-12 05:05:00,,0826.2,5.00,0.00,27.3,25.2,00.0,35.8,28.9,28.3,0000.0,0002.12,0000.75,0000.42
2023-05-12 05:06:00,,0826.2,5.00,0.00,27.2,25.2,00.0,35.8,28.8,28.3,0000.0,0001.97,0000.73,0000.42
2023-05-12 05:07:00,,0826.2,5.00,0.00,27.2,25.2,00.0,35.8,28.8,28.7,0000.0,0001.75,0000.77,0000.42
2023-05-12 05:08:00,,0826.2,5.00,0.00,27.2,25.1,00.0,35.8,28.8,28.7,0000.0,0001.81,0000.79,0000.44
2023-05-12 05:09:00,,0826.2,5.01,0.00,27.1,25.1,00.0,35.7,28.7,28.6,0000.0,0001.78,0000.80,0000.46
2023-05-12 05:10:00,,0826.2,5.01,0.00,27.1,25.1,00.0,35.7,28.7,28.6,0000.0,0001.80,0000.82,0000.47
2023-05-12 05:11:00,,0826.2,5.01,0.00,27.1,25.1,00.0,35.7,28.7,28.6,0000.0,0001.80,0000.82,0000.47
2023-05-12 05:12:00,,0826.2,5.01,0.00,27.1,25.1,00.0,35.7,28.7,28.9,0000.0,0001.85,0000.84,0000.49
2023-05-12 05:13:00,,0826.2,4.99,0.00,27.1,25.1,00.0,35.7,28.7,28.8,0000.0,0001.59,0000.81,0000.49
2023-05-12 05:14:00,,0826.2,5.00,0.00,27.1,25.0,00.0,35.6,28.7,28.8,0000.0,0001.55,0000.83,0000.49
2023-05-12 05:15:00,,0826.2,4.99,0.00,27.0,25.0,00.0,35.6,28.6,28.9,0000.0,0001.58,0000.85,0000.50
2023-05-12 05:16:00,,0826.2,5.00,0.00,27.0,25.0,00.0,35.6,28.6,29.0,0000.0,0001.68,0000.89,0000.51
2023-05-12 05:17:00,,0826.2,5.00,0.00,27.0,25.0,00.0,35.6,28.6,29.4,0000.0,0001.85,0000.97,0000.53
2023-05-12 05:18:00,,0826.2,5.00,0.00,27.0,25.0,00.0,35.6,28.6,29.4,0000.0,0001.78,0000.96,0000.55
2023-05-12 05:19:00,,0826.2,5.01,0.00,27.0,25.0,00.0,35.5,28.6,28.9,0000.0,0001.67,0000.94,0000.55
2023-05-12 05:20:00,,0826.2,5.00,0.00,26.9,24.9,00.0,35.5,28.6,29.0,0000.0,0001.60,0000.91,0000.54
2023-05-12 05:21:00,,0826.2,5.00,0.00,26.9,24.9,00.0,35.5,28.6,29.2,0000.0,0001.65,0000.89,0000.54
2023-05-12 05:22:00,,0826.2,5.00,0.00,26.9,24.9,00.0,35.5,28.6,29.0,0000.0,0001.83,0000.95,0000.56
2023-05-12 05:23:00,,0826.2,4.99,0.00,26.9,24.9,00.0,35.5,28.6,29.1,0000.0,0001.86,0000.96,0000.57
2023-05-12 05:24:00,,0826.2,5.00,0.00,26.9,24.9,00.0,35.5,28.6,29.4,0000.0,0002.00,0001.00,0000.60
2023-05-12 05:25:00,,0826.2,5.00,0.00,26.9,24.9,00.0,35.5,28.6,29.6,0000.0,0002.61,0001.03,0000.63
2023-05-12 05:26:00,,0826.2,5.01,0.00,26.9,24.9,00.0,35.4,28.5,29.4,0000.0,0002.75,0001.03,0000.67
2023-05-12 05:27:00,,0826.2,5.00,0.00,26.9,24.9,00.0,35.4,28.5,29.5,0000.0,0002.69,0001.03,0000.69
2023-05-12 05:28:00,,0826.2,5.01,0.00,26.9,24.9,00.0,35.4,28.5,29.8,0000.0,0002.61,0001.02,0000.73
2023-05-12 05:29:00,,0826.3,5.00,0.00,26.8,25.0,00.0,35.4,28.5,30.0,0000.0,0002.72,0001.09,0000.79
2023-05-12 05:30:00,,0826.2,4.99,0.00,26.8,24.9,00.0,35.4,28.5,30.2,0000.0,0002.99,0001.24,0000.85
2023-05-12 05:31:00,,0826.2,4.99,0.00,26.8,24.9,00.0,35.4,28.4,30.1,0000.0,0003.19,0001.36,0000.92
2023-05-12 05:32:00,,0826.2,5.00,0.00,26.8,24.8,00.0,35.3,28.4,30.1,0000.0,0003.22,0001.43,0000.99
2023-05-12 05:33:00,,0826.2,5.01,0.00,26.7,24.7,00.0,35.3,28.3,30.1,0000.0,0003.11,0001.45,0001.03
2023-05-12 05:34:00,,0826.2,5.01,0.00,26.7,24.7,00.0,35.3,28.3,30.1,0000.0,0003.11,0001.47,0001.07
2023-05-12 05:35:00,,0826.2,5.01,0.00,26.7,24.7,00.0,35.3,28.3,30.0,0000.0,0003.03,0001.47,0001.08
2023-05-12 05:36:00,,0826.2,5.00,0.00,26.7,24.7,00.0,35.3,28.4,30.0,0000.0,0003.38,0001.46,0001.09
2023-05-12 05:37:00,,0826.2,4.99,0.00,26.7,24.7,00.0,35.3,28.4,29.8,0000.0,0003.04,0001.43,0001.08
2023-05-12 05:38:00,,0826.2,5.00,0.00,26.7,24.7,00.0,35.2,28.4,30.0,0000.0,0003.02,0001.43,0001.09
2023-05-12 05:39:00,,0826.2,5.01,0.00,26.7,24.7,00.0,35.2,28.3,30.0,0000.0,0003.02,0001.43,0001.08
2023-05-12 05:40:00,,0826.3,5.01,0.00,26.7,24.8,00.0,35.2,28.3,29.8,0000.0,0002.95,0001.38,0001.02
2023-05-12 05:41:00,,0826.2,5.00,0.00,26.7,24.8,00.0,35.2,28.3,29.3,0000.0,0002.75,0001.24,0000.94
2023-05-12 05:42:00,,0826.2,5.00,0.00,26.6,24.7,00.0,35.2,28.3,29.3,0000.0,0002.58,0001.13,0000.86
2023-05-12 05:43:00,,0826.2,5.00,0.00,26.6,24.7,00.0,35.2,28.3,29.1,0000.0,0002.47,0001.04,0000.78
2023-05-12 05:44:00,,0826.2,4.99,0.00,26.6,24.8,00.0,35.2,28.4,29.1,0000.0,0002.54,0001.01,0000.73
2023-05-12 05:45:00,,0826.2,5.00,0.00,26.7,24.8,00.0,35.2,28.4,28.9,0000.0,0002.49,0000.96,0000.66
2023-05-12 05:46:00,,0826.3,5.01,0.00,26.7,24.8,00.0,35.2,28.4,28.7,0000.0,0002.41,0000.90,0000.61
2023-05-12 05:47:00,,0826.2,5.01,0.00,26.7,24.8,00.0,35.2,28.4,28.9,0000.0,0001.96,0000.85,0000.55
2023-05-12 05:48:00,,0826.3,5.01,0.00,26.7,24.8,00.0,35.2,28.4,28.9,0000.0,0002.07,0000.83,0000.52
2023-05-12 05:49:00,,0826.2,5.00,0.00,26.7,24.9,00.0,35.1,28.4,28.8,0000.0,0002.01,0000.78,0000.47
2023-05-12 05:50:00,,0826.2,5.00,0.00,26.7,24.9,00.0,35.1,28.4,28.7,0000.0,0001.92,0000.72,0000.42
2023-05-12 05:51:00,,0826.2,4.99,0.00,26.7,24.9,00.0,35.1,28.3,28.6,0000.0,0001.81,0000.66,0000.39
2023-05-12 05:52:00,,0826.2,5.01,0.00,26.7,24.9,00.0,35.1,28.3,28.7,0000.0,0001.84,0000.64,0000.38
2023-05-12 05:53:00,,0826.2,5.01,0.00,26.7,24.8,00.0,35.1,28.3,28.7,0000.0,0001.84,0000.63,0000.37
2023-05-12 05:54:00,,0826.2,5.00,0.00,26.7,24.8,00.0,35.1,28.3,28.7,0000.0,0001.86,0000.64,0000.37
2023-05-12 05:55:00,,0826.2,4.99,0.00,26.6,24.8,00.0,35.1,28.3,28.8,0000.0,0001.79,0000.63,0000.36
2023-05-12 05:56:00,,0826.2,5.00,0.00,26.6,24.8,00.0,35.1,28.4,28.8,0000.0,0001.75,0000.62,0000.36
2023-05-12 05:57:00,,0826.2,5.01,0.00,26.6,24.8,00.0,35.1,28.3,28.8,0000.0,0001.72,0000.61,0000.36
2023-05-12 05:58:00,,0826.2,5.00,0.00,26.6,24.8,00.0,35.1,28.3,28.9,0000.0,0001.30,0000.58,0000.35
2023-05-12 05:59:00,,0826.2,5.00,0.00,26.6,24.8,00.0,35.1,28.3,29.0,0000.0,0001.00,0000.55,0000.33
